GFSMA_sfc_rhum_273.txt.gz
RH
60 64 55 49 55 48 53 52 68 49 78 76 80 76 66 69 64 93 67 74 77 74 67 66 67 67 71 73 74 74 75 76 74 72 74 74 74 77 76 79 78 75 76
62 64 65 48 44 36 48 70 90 86 72 64 74 88 76 78 63 60 61 56 76 77 72 66 69 67 67 70 76 75 75 75 77 73 77 77 78 77 78 73 72 75 76
62 60 57 56 69 65 52 56 54 56 84 75 90 80 84 79 88 78 63 66 69 77 74 67 68 69 69 69 73 75 75 77 76 76 76 77 78 77 76 73 72 77 76
61 75 74 63 87 85 86 68 83 78 80 74 88 91 93 75 87 86 54 87 92 52 68 70 72 72 70 70 71 72 75 77 78 78 77 76 79 76 76 75 72 75 73
64 79 88 90 87 65 55 83 92 82 90 90 85 85 92 90 92 82 87 78 68 53 47 70 75 75 70 70 73 74 72 77 80 79 80 78 77 78 76 78 76 75 75
58 76 70 80 83 56 84 89 87 90 75 86 85 92 91 74 84 87 86 79 53 67 61 56 55 53 78 73 76 77 76 78 80 80 82 83 83 81 79 78 77 76 75
66 65 65 76 74 90 86 81 79 88 74 90 98 95 73 77 77 72 57 80 68 49 53 83 48 45 54 80 78 79 76 76 78 79 84 86 86 85 84 83 83 82 82
66 68 68 87 70 79 85 84 75 92 86 97 74 96 96 94 86 57 71 75 65 56 60 68 53 49 47 47 60 81 81 80 77 78 81 87 87 88 89 87 87 87 87
70 73 82 86 90 88 77 86 91 91 97 93 89 93 96 75 96 89 74 73 73 81 54 61 59 60 52 42 54 73 83 84 82 79 76 84 88 88 88 90 91 90 90
70 68 78 75 87 88 69 76 80 88 95 94 94 82 77 73 79 97 94 84 80 78 61 53 51 56 42 55 51 62 82 87 84 83 80 80 85 86 85 88 90 91 90
82 69 75 84 83 69 88 67 75 74 75 93 97 93 92 89 87 94 94 69 67 80 76 64 56 45 42 38 37 51 83 87 86 85 84 80 84 81 78 79 85 88 89
94 93 93 88 85 83 79 88 82 77 77 84 94 94 86 92 82 67 81 77 62 64 81 57 52 36 41 39 42 70 85 86 87 88 87 84 82 84 80 78 80 82 85
73 87 94 97 87 74 67 77 84 81 79 82 81 91 66 74 86 71 91 88 64 69 66 59 55 48 36 36 38 65 85 87 89 90 91 91 90 89 88 86 84 83 81
73 78 91 92 88 75 71 83 88 61 69 70 77 89 91 73 82 61 56 97 87 79 68 66 51 56 56 43 40 68 59 90 90 92 93 92 92 92 91 89 88 86 85
75 84 80 79 77 76 81 82 80 78 85 84 86 85 79 79 61 55 72 92 54 90 71 74 71 56 53 39 45 42 43 81 86 88 89 90 89 88 86 86 88 89 90
73 84 85 76 77 81 79 80 83 87 82 80 83 74 88 87 78 57 69 60 77 68 93 78 50 46 52 50 60 53 46 74 82 85 86 88 88 87 87 88 90 91 92
76 78 82 78 80 78 71 76 87 82 76 78 82 84 83 85 65 56 68 74 54 71 90 58 91 59 71 63 56 54 48 50 56 84 86 87 88 89 90 91 92 93 93
65 71 73 73 80 78 72 74 75 75 79 83 79 80 80 84 85 77 67 80 82 67 71 86 78 88 71 68 71 74 48 37 42 75 84 87 89 91 92 94 94 95 95
66 59 66 75 74 74 77 78 76 76 73 72 84 90 82 88 87 90 72 90 54 54 57 54 56 77 68 64 87 84 72 58 51 78 85 88 90 93 94 95 95 96 98
65 63 65 70 76 72 68 64 64 69 67 72 83 85 80 86 95 94 94 90 97 87 73 90 86 64 65 77 92 93 86 91 86 56 68 72 83 94 95 96 96 96 98
63 67 67 74 65 67 55 63 62 67 71 81 86 83 85 98 98 99 99 94 92 93 93 94 60 49 53 58 84 88 93 94 92 90 86 56 61 63 71 96 82 96 94
62 66 72 66 74 44 82 76 68 60 67 73 82 89 95 95 97 97 97 94 93 95 93 94 93 73 88 89 92 64 89 94 75 83 70 68 54 55 50 60 88 88 88
72 69 67 74 68 54 88 90 84 55 62 63 67 70 76 89 95 95 96 96 95 88 91 92 92 88 88 80 83 80 82 91 92 85 80 92 61 57 66 73 88 88 87
70 70 69 64 59 62 86 89 90 66 77 67 65 66 73 87 92 92 92 93 89 82 81 71 81 85 88 89 90 90 89 90 82 92 88 93 75 64 57 66 88 85 84
79 74 69 64 65 66 88 89 89 66 80 73 70 71 71 74 86 89 74 74 81 70 80 86 91 92 88 90 90 93 90 86 93 87 60 60 77 60 58 60 68 86 86
80 60 64 62 65 63 90 91 84 49 49 81 83 76 86 71 90 87 72 69 68 61 58 58 63 74 83 68 77 69 64 75 80 56 53 49 47 46 48 57 60 58 57

GFSMA_sfc_rhum_276.txt.gz
RH
71 73 70 71 70 66 66 74 76 82 92 93 81 75 76 87 87 91 78 76 79 74 69 68 69 74 75 76 76 78 77 75 78 78 76 78 80 80 80 79 77 77 77
77 73 72 72 76 65 69 71 86 82 91 89 80 84 72 84 88 89 72 70 78 76 74 68 70 70 73 74 74 76 77 77 79 79 80 80 81 81 80 78 77 76 77
71 74 88 77 73 78 78 87 87 85 89 92 93 86 85 83 86 87 85 78 72 78 75 73 74 74 74 72 74 75 79 81 80 81 82 83 82 82 80 77 78 79 80
78 80 89 87 86 89 87 90 88 90 92 92 97 98 96 90 86 88 87 93 91 60 73 75 77 76 74 70 73 75 79 81 83 82 83 83 83 81 80 78 82 83 83
76 90 89 88 86 83 91 90 89 92 92 95 92 95 96 96 86 82 86 86 87 72 64 74 76 75 70 69 71 77 79 82 84 84 82 82 83 82 82 81 79 81 79
74 88 87 89 94 94 90 95 97 96 92 93 92 95 95 95 89 92 91 89 85 69 58 66 71 71 79 73 77 79 78 80 84 85 84 83 83 84 83 84 83 82 82
77 86 86 87 89 90 89 92 92 96 88 99 99 97 96 94 89 85 84 92 79 61 71 69 67 62 70 78 80 81 79 77 79 83 86 86 86 84 85 85 85 84 83
79 81 86 84 87 92 88 87 89 94 95 98 99 96 99 96 98 78 74 82 86 80 64 79 62 60 64 69 77 82 82 82 80 80 85 87 87 88 87 87 88 88 89
74 80 84 84 87 92 95 90 87 92 94 99 98 98 96 97 96 95 80 76 82 91 87 76 65 58 60 62 69 80 84 85 83 81 82 87 89 89 90 90 89 89 89
81 82 86 87 85 81 90 92 92 94 95 96 98 97 96 93 94 98 95 91 88 88 86 77 66 59 63 64 62 74 84 88 86 84 83 83 89 89 89 90 92 92 91
83 77 82 83 84 80 87 90 90 92 88 88 96 98 98 95 91 95 96 95 94 92 90 68 65 63 57 56 55 65 84 87 87 86 85 84 84 81 81 83 88 91 91
80 88 84 86 87 84 87 90 91 90 92 91 96 98 98 96 96 95 93 94 86 88 91 76 65 61 59 57 56 63 82 86 87 88 88 87 84 85 79 74 76 79 83
74 86 94 94 95 93 85 87 89 93 92 90 91 94 96 94 93 94 94 93 93 78 83 90 68 64 54 55 53 63 80 86 87 89 89 91 87 86 88 85 82 80 80
72 80 86 85 86 87 84 83 94 82 88 82 88 90 95 96 84 82 88 94 96 94 86 81 69 66 67 52 57 78 77 87 88 90 91 91 91 90 91 91 90 90 89
75 80 80 87 86 86 87 88 95 86 84 84 89 90 97 91 92 93 94 97 98 96 88 82 84 64 68 70 72 62 70 89 90 91 91 92 93 92 92 91 92 92 91
82 83 86 86 85 85 86 89 89 84 90 93 81 89 87 81 93 93 89 96 96 95 95 95 76 67 62 55 66 55 60 86 89 89 90 91 92 92 92 92 91 90 90
85 85 88 87 85 85 85 90 88 86 89 91 89 89 90 89 95 89 94 93 97 96 96 92 92 96 82 70 63 62 58 75 75 89 90 90 90 89 88 88 89 90 92
79 82 87 86 86 85 87 88 86 82 85 87 86 90 90 90 92 92 93 90 94 93 94 92 97 98 96 86 84 80 55 48 63 78 85 85 86 86 87 90 92 94 94
78 76 80 86 86 85 86 87 88 88 87 87 87 89 89 90 93 94 92 90 96 98 97 93 93 99 95 93 87 88 81 69 56 68 82 83 86 87 89 91 93 96 97
79 78 80 82 82 81 82 84 86 87 84 83 88 90 91 94 92 95 96 96 97 97 98 92 96 97 95 88 92 94 93 94 91 66 70 75 84 90 93 94 95 95 96
73 80 78 78 79 76 67 83 83 79 79 81 88 88 90 96 98 99 98 98 97 98 98 96 93 94 95 94 90 93 96 94 93 92 93 85 97 92 90 95 90 95 96
79 79 80 82 84 60 69 81 79 76 78 80 84 89 96 96 97 96 97 97 97 98 97 96 95 95 92 90 92 94 95 95 91 91 94 97 90 81 77 84 90 94 96
78 80 78 78 80 76 88 83 82 66 75 77 82 83 78 80 91 94 96 96 96 96 93 96 96 94 92 89 87 91 89 94 93 93 93 95 85 87 81 84 91 92 91
86 88 83 82 80 77 87 87 86 76 84 78 78 79 80 84 84 88 90 92 93 93 91 89 95 97 98 98 94 91 94 90 94 92 90 96 94 91 90 83 91 91 90
85 86 86 85 84 85 93 91 90 79 85 84 84 77 80 82 88 96 89 91 91 91 86 86 90 89 90 90 94 96 98 99 99 97 90 95 95 95 82 91 82 87 87
84 77 87 85 78 86 92 91 90 73 76 82 89 83 83 80 96 95 89 85 88 82 78 74 82 85 86 82 86 92 94 96 95 95 88 94 94 95 96 82 74 81 83

GFSMA_sfc_rhum_279.txt.gz
RH
77 73 77 75 76 75 83 86 95 93 94 87 80 84 94 96 96 89 92 77 80 76 72 71 74 77 77 78 77 78 77 78 78 79 78 79 79 82 81 77 77 77 77
76 72 72 73 77 70 71 77 94 97 97 96 91 86 92 94 93 90 94 78 79 78 76 73 74 75 75 76 77 77 77 79 79 79 82 83 83 83 80 77 77 77 77
76 83 85 72 85 92 84 95 91 91 95 94 91 88 85 90 95 94 90 86 78 79 77 76 77 80 77 74 74 77 80 82 82 82 84 84 85 84 82 80 78 77 78
83 89 94 92 90 92 93 92 96 98 97 98 97 97 96 93 90 89 90 93 94 77 77 77 78 79 77 74 74 76 80 83 82 84 84 83 83 83 82 82 82 83 80
81 91 94 92 87 85 94 94 95 94 98 98 97 98 97 97 94 85 89 88 92 81 77 79 81 79 72 71 74 77 79 82 85 84 85 86 85 85 84 83 86 86 84
86 93 92 93 94 90 95 98 98 96 95 99 97 98 98 98 94 98 91 92 93 86 73 77 80 77 80 73 78 79 79 80 84 85 85 86 86 85 86 86 85 86 84
86 91 91 93 96 93 95 96 98 97 98 98 100 99 98 97 97 99 98 97 90 76 80 79 75 79 70 80 80 81 79 78 79 83 86 86 87 88 88 88 88 87 87
88 92 94 91 92 95 94 94 95 99 97 99 99 99 99 98 98 97 96 90 95 87 72 85 70 70 69 81 83 82 83 81 76 78 86 88 88 88 89 90 89 89 88
85 89 89 93 93 96 98 96 95 93 99 99 96 97 99 98 99 100 92 88 91 95 93 73 68 62 64 71 79 83 85 87 84 79 82 89 90 90 89 90 90 90 91
86 92 90 95 96 98 95 96 98 97 96 99 100 98 98 96 97 98 98 95 96 94 91 85 70 62 60 69 68 81 84 88 87 86 84 86 90 90 89 91 92 91 90
91 93 94 94 96 95 96 94 94 98 98 97 98 99 99 99 97 99 98 99 98 96 94 81 74 70 61 63 65 70 85 89 88 87 85 85 87 84 83 84 88 91 90
94 93 95 94 94 95 94 96 94 93 97 98 98 98 98 98 99 98 98 98 94 97 95 86 74 71 68 67 62 68 83 88 88 89 88 87 87 85 79 78 80 83 84
96 93 96 97 97 96 91 90 90 94 94 96 95 98 98 97 97 97 97 96 98 99 99 93 74 68 63 64 61 69 79 87 89 90 92 92 90 88 86 82 80 77 75
97 92 95 96 97 96 95 90 97 98 96 94 95 96 98 97 97 98 97 97 96 98 98 94 77 70 68 61 63 76 62 88 90 90 91 92 93 92 90 89 87 85 85
83 95 96 97 91 89 92 95 97 95 96 97 97 96 97 98 98 98 98 97 96 99 97 95 93 70 68 60 60 60 57 85 90 91 93 93 93 93 92 92 94 93 94
88 97 92 93 92 95 94 96 96 97 98 98 96 96 96 95 96 97 99 97 98 98 98 97 83 76 64 66 74 67 68 84 89 90 92 92 92 92 93 93 94 95 94
94 95 96 96 97 97 96 97 97 97 97 97 96 96 96 96 98 98 96 99 98 98 97 97 97 95 75 70 71 69 70 75 81 90 90 91 91 92 92 92 93 93 94
94 94 97 97 97 96 96 97 97 95 96 94 94 96 95 96 96 95 97 97 98 99 97 97 97 98 96 91 74 69 58 60 69 86 91 91 91 91 91 91 92 93 92
93 91 95 97 97 96 97 96 97 96 95 95 94 96 96 97 97 98 98 99 99 99 99 99 99 99 99 98 95 90 72 60 60 73 90 90 90 91 91 93 92 92 93
91 94 94 96 96 96 96 96 96 95 95 93 94 96 96 96 96 98 97 98 98 99 99 97 99 99 99 97 97 96 95 95 91 73 71 75 82 87 90 90 90 92 93
88 92 94 95 95 92 84 96 96 95 93 93 94 98 99 98 98 97 98 98 96 97 98 99 99 99 98 97 94 96 97 97 97 97 94 95 95 89 88 93 85 90 93
88 94 94 94 95 79 83 89 92 95 90 95 97 98 98 97 97 97 96 96 96 96 97 98 99 99 98 98 97 98 97 98 89 94 98 98 98 98 97 87 86 92 97
92 94 93 94 96 93 86 89 88 88 91 95 96 98 96 96 96 98 96 96 96 94 92 97 97 98 97 98 97 95 94 96 97 97 97 99 99 99 99 99 97 96 98
94 95 95 94 94 92 88 91 88 88 94 93 94 94 94 97 97 97 97 96 95 96 96 92 96 97 97 98 96 94 94 94 96 96 95 96 99 99 98 98 97 95 94
95 94 93 93 93 93 90 90 88 92 95 94 93 93 94 95 95 94 96 96 96 96 91 93 95 93 95 93 96 99 99 98 98 98 97 97 98 98 97 98 94 92 92
94 97 96 95 95 93 94 93 93 97 96 98 96 95 91 92 95 96 97 97 97 94 86 82 82 86 89 83 92 96 97 96 98 99 97 98 98 98 99 96 96 90 91

GFSMA_sfc_rhum_285.txt.gz
RH
93 94 94 93 95 98 96 97 96 95 92 93 92 91 91 89 90 88 90 82 81 79 73 74 76 77 78 78 76 78 78 78 79 79 77 77 77 79 78 76 76 76 76
92 93 94 94 93 92 89 93 97 97 97 96 96 95 91 94 92 92 94 90 78 80 77 74 75 77 76 76 77 78 78 78 79 80 81 81 81 78 79 77 77 77 77
89 92 93 93 88 95 90 96 97 98 98 97 95 92 94 93 98 96 93 88 87 77 76 77 79 80 77 76 76 77 80 82 81 81 82 81 83 80 79 77 77 77 79
92 93 96 95 93 97 96 95 98 99 99 99 99 98 96 95 98 97 94 95 96 95 82 78 80 81 77 76 76 77 80 83 84 83 83 81 82 82 80 79 78 78 79
90 91 96 96 96 98 98 98 98 98 99 99 98 98 97 98 97 95 95 93 93 90 96 83 81 82 76 73 75 77 78 84 85 87 84 84 83 84 83 83 82 81 80
82 92 96 96 97 98 98 98 97 98 98 98 97 98 99 98 96 98 96 91 96 92 95 92 92 81 79 73 77 78 79 81 83 85 86 88 88 87 87 87 88 85 83
78 88 89 96 97 97 97 97 98 99 99 99 99 99 99 99 98 98 98 97 96 89 93 94 85 94 78 80 81 80 79 79 80 82 86 89 90 90 89 88 90 90 87
86 88 94 91 95 96 98 98 98 100 99 99 99 99 100 100 99 98 97 92 96 90 89 91 83 84 88 90 84 78 82 82 78 81 83 89 90 91 90 90 90 89 90
90 83 90 90 96 94 97 97 97 97 99 99 98 97 99 98 99 100 98 98 98 98 92 86 83 87 83 84 79 82 83 88 83 79 80 86 90 90 90 90 92 92 92
85 85 90 90 94 92 95 97 97 97 97 99 99 99 98 95 98 99 100 98 98 98 97 89 80 78 80 79 74 80 86 89 88 83 79 82 88 87 86 89 90 91 91
88 86 87 91 94 90 90 97 98 98 98 98 99 100 100 99 98 98 99 100 99 98 97 91 82 78 77 76 75 71 87 90 90 88 85 83 86 84 82 83 85 87 86
93 94 90 90 89 91 95 92 97 97 98 98 98 98 99 99 99 99 100 99 99 99 97 92 88 80 77 75 72 76 81 89 91 90 89 86 84 85 78 79 80 82 84
95 93 95 97 97 95 97 88 90 97 98 98 97 98 98 97 97 98 99 99 99 99 100 95 86 82 75 73 72 76 78 86 92 93 93 93 90 88 87 84 81 79 77
95 94 96 95 97 98 98 97 98 98 97 98 96 99 99 98 98 98 98 99 99 99 100 98 92 83 79 75 71 78 73 85 89 94 94 94 94 93 92 90 88 86 84
94 96 95 95 97 98 98 98 99 97 97 97 97 97 98 98 99 98 98 98 97 99 99 98 99 86 80 77 76 73 71 80 88 92 94 94 94 95 94 94 93 92 91
94 98 97 97 98 99 99 99 99 97 98 98 98 98 98 98 99 99 99 98 98 98 97 97 94 95 81 76 76 74 72 78 87 90 94 94 94 94 94 94 95 95 94
96 98 99 98 98 99 99 99 98 98 98 98 98 98 97 97 99 99 99 99 99 98 98 96 98 97 88 84 76 76 74 73 76 90 91 93 94 94 94 94 96 96 96
97 97 98 98 98 99 98 99 97 96 98 97 98 99 98 98 99 98 99 98 99 98 98 96 97 99 97 91 78 80 74 64 68 85 91 92 94 94 95 96 97 98 98
98 98 98 98 99 99 99 99 98 99 99 99 98 98 98 99 98 99 99 99 99 98 98 98 98 98 98 98 96 93 89 73 66 75 94 94 94 94 94 96 97 98 99
98 98 98 98 98 99 99 99 99 99 99 98 98 98 98 98 98 98 98 98 98 99 98 98 99 100 99 98 98 98 99 97 83 73 80 89 93 94 94 96 96 97 99
96 98 99 98 98 97 95 99 99 99 99 98 98 97 98 98 96 98 98 96 98 99 99 99 99 99 99 100 99 99 98 98 97 97 97 98 94 91 91 96 91 94 96
98 98 98 98 99 91 94 97 97 98 98 98 98 97 97 94 95 99 98 96 98 98 98 99 99 98 98 97 99 99 98 99 98 98 96 97 98 98 95 96 90 90 95
97 98 98 98 98 97 95 96 96 98 98 98 98 97 96 98 96 98 98 96 96 97 96 97 98 98 98 98 98 99 98 98 98 99 98 97 100 98 98 98 96 94 94
97 97 96 96 95 93 96 94 94 98 99 97 97 96 96 97 98 98 98 98 96 96 96 97 96 97 97 98 98 98 98 98 99 99 97 97 100 99 99 99 99 97 96
97 97 96 97 97 96 99 97 96 96 98 98 97 97 97 97 98 99 97 96 96 95 92 98 98 99 100 100 100 100 100 100 99 99 99 97 99 99 99 99 99 99 100
96 98 97 97 97 96 99 98 99 98 98 99 98 98 97 96 98 100 98 98 98 96 96 96 98 99 100 99 100 99 99 100 100 99 98 97 100 99 98 98 99 100 100

GFSMA_sfc_rhum_291.txt.gz
RH
62 60 63 61 61 62 63 70 68 66 91 81 77 75 69 73 66 57 52 78 78 77 77 76 76 76 76 79 78 78 80 78 77 78 77 79 77 76 75 74 75 75 76
66 60 62 61 61 60 75 67 85 90 89 86 82 85 76 77 64 65 54 52 77 76 76 75 76 77 76 78 77 77 79 79 80 79 79 80 80 76 76 76 75 75 76
72 70 85 64 59 62 68 73 83 91 97 97 94 97 96 76 79 83 59 52 54 77 77 76 78 79 77 77 77 76 81 82 81 80 81 79 81 78 77 77 76 76 76
76 75 67 64 63 66 66 72 91 85 99 98 99 99 98 92 83 80 66 60 59 50 71 78 80 80 78 76 77 76 80 82 83 83 82 81 79 79 78 78 78 78 77
75 70 64 64 72 64 67 75 95 95 97 94 98 99 98 98 82 78 72 70 63 67 59 79 84 84 74 73 76 78 80 82 84 84 84 84 82 81 80 80 79 80 78
68 72 63 68 70 66 68 75 88 84 84 98 96 98 99 97 79 92 81 81 83 82 63 62 57 57 82 76 78 78 77 80 81 83 87 87 87 86 85 86 84 81 79
73 82 65 70 72 71 71 76 78 86 99 99 96 92 98 87 94 90 98 97 91 63 56 58 53 53 52 82 82 81 77 79 81 82 86 88 88 88 89 89 88 85 81
80 76 89 71 73 63 77 75 83 92 84 99 94 82 84 98 98 89 98 97 96 90 72 57 60 60 49 68 55 82 82 81 79 80 82 88 89 89 91 91 91 90 88
73 76 75 74 72 70 63 75 75 78 76 92 91 91 84 97 75 94 97 95 98 98 76 64 54 60 53 47 55 67 85 87 82 79 81 87 90 89 90 90 89 92 92
72 73 76 76 78 64 70 71 71 77 78 88 92 74 83 90 91 91 84 87 92 94 73 65 57 54 52 51 56 63 79 87 85 82 81 83 87 88 86 89 90 89 90
73 70 75 77 77 67 70 72 77 81 69 69 81 93 95 88 87 81 92 90 98 96 80 67 59 60 55 51 48 54 82 85 86 85 84 84 83 84 82 82 86 87 85
60 74 73 77 76 71 72 70 77 84 87 86 70 93 95 93 80 78 89 87 96 99 92 75 66 60 56 54 56 65 81 84 84 84 87 86 85 84 81 77 79 81 83
58 67 77 79 73 77 74 75 79 76 82 79 87 75 94 96 82 93 95 90 96 97 96 96 74 61 56 55 54 70 75 84 85 87 90 90 88 88 86 84 81 79 76
56 65 73 72 77 77 79 82 74 89 95 94 93 93 88 96 93 96 96 92 97 97 92 94 95 71 61 58 59 79 57 85 86 88 91 91 91 91 90 89 87 85 83
58 73 76 78 79 81 81 88 98 98 98 99 93 90 95 96 95 91 80 91 95 95 95 91 96 72 67 59 63 58 59 72 87 87 90 91 92 92 92 92 92 91 90
73 79 80 80 81 84 88 92 91 95 97 93 87 83 80 65 68 82 66 74 83 94 93 72 89 82 76 60 63 67 59 74 88 88 89 92 93 92 92 93 93 93 93
86 87 86 82 84 88 84 91 94 97 96 92 84 81 80 79 77 76 77 76 89 86 77 93 94 90 87 81 62 66 64 59 56 90 90 91 93 93 93 93 94 95 94
83 91 89 85 82 90 89 94 96 95 95 96 89 87 81 84 87 82 81 85 91 92 88 94 92 84 85 92 86 78 62 51 54 74 89 91 93 94 94 95 96 96 96
77 78 80 85 84 83 89 91 92 92 94 92 90 91 90 86 84 75 87 96 94 92 94 92 71 80 78 68 80 87 74 68 53 72 92 91 92 92 93 94 95 96 97
78 76 78 81 82 82 82 84 89 91 91 87 87 88 86 81 85 89 90 93 91 95 96 98 96 91 79 81 81 95 88 74 71 53 63 70 80 89 93 94 95 95 97
79 81 82 81 80 76 70 86 89 90 88 88 85 85 84 84 90 91 80 78 81 88 98 99 98 97 96 97 95 98 98 96 91 80 60 52 57 60 64 92 81 94 96
82 83 81 82 84 69 86 94 83 84 89 89 86 83 82 92 92 96 96 95 94 97 98 98 97 97 95 95 95 97 95 99 98 69 90 66 56 56 52 50 72 83 97
81 83 81 80 83 80 95 97 97 68 72 74 76 74 70 61 85 76 87 95 96 96 99 96 98 98 98 98 97 98 95 96 84 97 96 92 70 64 53 59 86 90 91
83 82 81 82 82 78 97 98 97 79 76 77 75 74 75 72 73 73 70 70 75 80 90 93 95 88 96 98 96 95 96 96 94 93 97 92 85 81 57 57 90 94 95
82 81 79 83 83 79 98 98 96 76 76 82 78 77 76 75 85 96 74 73 72 70 85 98 98 99 100 100 100 100 99 99 99 99 99 98 97 96 93 89 95 98 99
79 70 78 79 85 79 100 98 94 66 71 69 83 82 97 85 92 97 77 73 76 67 69 69 75 84 90 84 100 94 98 99 100 100 99 99 98 99 100 100 99 100 100